Dunedin Highland Middle School FL US WEATHERSTEM current weather conditions

sailwx.info

Wind from 084 at 4 knots gusting 8

Air temperature 27.4° C
Dewpoint 21.0° C

Last reported at 2020-Feb-18 20:50 UTC.
Time now 2020-Feb-18 21:19 UTC

Location: N 27°60' W 082°47'.
View on Google Maps.

See reports from other nearby stations

  
Tides and Currents Weather Stations Pressure Air Temp Water Temp Dewpoint Dewpoint Depression Visibility Wind Speed Wind Dir Waves Ship Positions
date/time (UTC)wind fromknots sea level pressurealtimeterstation pressurevisibilityair tempwater tempwave heightnotes
2020-Feb-18 20:50 084 4 gusting 8 27.4
2020-Feb-18 20:40 090 9 gusting 11 27.3
2020-Feb-18 20:20 084 6 gusting 10 27.6
2020-Feb-18 20:10 098 5 gusting 8 27.7
2020-Feb-18 20:00 012 3 gusting 8 27.9
2020-Feb-18 19:50 085 2 gusting 8 27.6
2020-Feb-18 19:40 019 0 gusting 10 27.1
2020-Feb-18 19:20 062 2 gusting 8 27.1
2020-Feb-18 19:10 073 3 gusting 8 27.3
2020-Feb-18 19:00 28.0
2020-Feb-18 18:50 317 1 gusting 8 28.2
2020-Feb-18 18:40 319 1 gusting 8 28.3
2020-Feb-18 18:20 043 5 gusting 9 28.4
2020-Feb-18 18:10 289 7 gusting 11 28.4
2020-Feb-18 18:00 286 3 gusting 10 28.3
2020-Feb-18 17:50 260 0 gusting 8 28.1
2020-Feb-18 17:40 294 2 gusting 7 27.8
2020-Feb-18 17:30 005 3 gusting 6 27.7
2020-Feb-18 17:20 313 4 gusting 7 27.7
2020-Feb-18 17:10 292 4 gusting 9 27.8
2020-Feb-18 17:00 009 2 gusting 9 27.8
2020-Feb-18 16:50 019 0 gusting 7 27.9
2020-Feb-18 16:40 013 1 gusting 7 27.8
2020-Feb-18 16:20 310 3 gusting 6 27.3
2020-Feb-18 16:10 026 3 gusting 9 27.2
2020-Feb-18 16:00 273 0 gusting 9 26.9
2020-Feb-18 15:50 349 3 gusting 7 26.7
2020-Feb-18 15:40 009 2 gusting 6 26.3
2020-Feb-18 15:20 281 0 gusting 7 25.5
2020-Feb-18 15:10 040 5 gusting 8 25.1
2020-Feb-18 15:00 289 3 gusting 7 24.8
2020-Feb-18 14:50 294 1 gusting 6 24.5
2020-Feb-18 14:30 265 3 gusting 6 23.9
2020-Feb-18 14:20 328 2 gusting 7 23.7
2020-Feb-18 14:10 298 3 gusting 6 23.5
2020-Feb-18 14:00 303 2 gusting 7 23.2
2020-Feb-18 13:50 292 3 gusting 5 22.9
2020-Feb-18 13:40 306 2 gusting 6 22.5
2020-Feb-18 13:30 307 0 gusting 6 22.2
2020-Feb-18 13:20 285 2 gusting 6 21.8
2020-Feb-18 13:10 290 1 gusting 5 21.4
2020-Feb-18 13:00 272 1 gusting 4 21.1
2020-Feb-18 12:50 294 0 gusting 2 20.8
2020-Feb-18 12:40 274 0 gusting 1 20.5
2020-Feb-18 12:30 273 0 gusting 1 20.3
2020-Feb-18 12:20 279 0 gusting 0 20.3
2020-Feb-18 12:10 20.4
2020-Feb-18 12:00 280 0 gusting 0 20.4
2020-Feb-18 11:50 20.4
2020-Feb-18 11:40 20.5
2020-Feb-18 11:30 280 0 gusting 2 20.5
2020-Feb-18 11:20 277 0 gusting 2 20.5
2020-Feb-18 11:10 20.4
2020-Feb-18 11:00 20.5
2020-Feb-18 10:50 20.4
2020-Feb-18 10:40 268 2 gusting 2 20.4
2020-Feb-18 10:20 268 0 gusting 2 20.5
2020-Feb-18 10:10 268 1 gusting 3 20.5
2020-Feb-18 10:00 271 0 gusting 4 20.6
2020-Feb-18 09:50 265 0 gusting 2 20.6
2020-Feb-18 09:40 267 0 gusting 3 20.6
2020-Feb-18 09:30 20.7
2020-Feb-18 09:20 20.7
2020-Feb-18 09:10 20.7
2020-Feb-18 09:00 20.7
2020-Feb-18 08:50 20.7
2020-Feb-18 08:40 271 0 gusting 3 20.6
2020-Feb-18 08:20 288 20.6
2020-Feb-18 08:10 282 0 gusting 3 20.5
2020-Feb-18 08:00 272 0 gusting 1 20.4
2020-Feb-18 07:50 20.4
2020-Feb-18 07:40 276 0 gusting 0 20.4
2020-Feb-18 07:30 20.4
2020-Feb-18 07:20 254 0 gusting 0 20.3
2020-Feb-18 07:10 20.3
2020-Feb-18 07:00 20.3
2020-Feb-18 06:50 20.3
2020-Feb-18 06:40 20.3
2020-Feb-18 06:20 246 0 gusting 0 20.4
2020-Feb-18 06:10 20.4
2020-Feb-18 06:00 20.4
2020-Feb-18 05:50 20.4
2020-Feb-18 05:40 20.5
2020-Feb-18 05:20 269 0 gusting 2 20.5
2020-Feb-18 05:10 20.5
2020-Feb-18 05:00 20.5
2020-Feb-18 04:50 20.5
2020-Feb-18 04:40 249 0 gusting 1 20.5
2020-Feb-18 04:30 20.4
2020-Feb-18 04:10 20.5
2020-Feb-18 04:00 20.5
2020-Feb-18 03:50 20.5
2020-Feb-18 03:30 234 0 gusting 1 20.4
2020-Feb-18 03:20 239 20.4
2020-Feb-18 03:10 20.4
2020-Feb-18 03:00 20.3
2020-Feb-18 02:50 20.3
2020-Feb-18 02:40 20.3
2020-Feb-18 02:20 20.3
2020-Feb-18 02:10 20.4
2020-Feb-18 02:00 20.4
2020-Feb-18 01:50 20.4
2020-Feb-18 01:40 20.5
2020-Feb-18 01:30 20.6
2020-Feb-18 01:20 20.6
2020-Feb-18 01:10 20.6
2020-Feb-18 01:00 20.6
2020-Feb-18 00:50 20.7
2020-Feb-18 00:40 20.7
2020-Feb-18 00:30 20.8
2020-Feb-18 00:20 20.8
2020-Feb-18 00:10 20.9
2020-Feb-18 00:00 103 0 gusting 1 20.9
2020-Feb-17 23:50 072 0 gusting 2 21.0
2020-Feb-17 23:40 21.1
2020-Feb-17 23:30 096 1 gusting 2 21.3
2020-Feb-17 23:20 21.4
2020-Feb-17 23:10 094 2 gusting 5 21.6
2020-Feb-17 23:00 109 0 gusting 6 21.8
2020-Feb-17 22:50 115 2 gusting 5 22.0
2020-Feb-17 22:40 090 2 gusting 5 22.4
2020-Feb-17 22:30 119 6 gusting 6 22.8
2020-Feb-17 22:10 096 2 gusting 7 23.6
2020-Feb-17 22:00 088 4 gusting 6 24.0
2020-Feb-17 21:50 096 5 gusting 6 24.3
2020-Feb-17 21:40 105 5 gusting 6 24.3
2020-Feb-17 21:30 091 3 gusting 7 24.5
2020-Feb-17 21:20 099 3 gusting 6 24.7
2020-Feb-17 21:10 103 5 gusting 7 24.8
2020-Feb-17 21:00 052 5 gusting 8 25.3
2020-Feb-17 20:50 093 5 gusting 7 25.7
2020-Feb-17 20:40 080 3 gusting 8 25.9
2020-Feb-17 20:30 110 3 gusting 8 26.1
2020-Feb-17 20:20 065 3 gusting 7 26.1
2020-Feb-17 20:10 084 4 gusting 7 26.0
2020-Feb-17 20:00 086 2 gusting 7 25.7
2020-Feb-17 19:50 087 4 gusting 8 25.4
2020-Feb-17 19:40 090 5 gusting 9 25.3
2020-Feb-17 19:30 087 6 gusting 9 25.6
2020-Feb-17 19:20 069 5 gusting 7 25.9
2020-Feb-17 19:10 104 2 gusting 7 26.0
2020-Feb-17 19:00 062 5 gusting 7 25.7
2020-Feb-17 18:50 088 6 gusting 9 25.8
2020-Feb-17 18:40 073 6 gusting 6 25.5
2020-Feb-17 18:30 068 5 gusting 7 25.0
2020-Feb-17 18:20 080 4 gusting 7 24.8
2020-Feb-17 18:10 090 3 gusting 8 24.7
2020-Feb-17 18:00 073 4 gusting 8 24.6
2020-Feb-17 17:50 123 4 gusting 8 24.6
2020-Feb-17 17:40 101 5 gusting 8 24.2
2020-Feb-17 17:30 119 2 gusting 6 23.9
2020-Feb-17 17:20 097 1 gusting 6 23.9
2020-Feb-17 17:10 094 5 gusting 6 23.7
2020-Feb-17 17:00 120 2 gusting 6 24.1
2020-Feb-17 16:50 100 6 gusting 7 25.1
2020-Feb-17 16:40 125 1 gusting 3 25.3
2020-Feb-17 16:30 25.0
2020-Feb-17 16:20 103 1 gusting 5 25.0
2020-Feb-17 16:10 005 1 gusting 5 25.2
2020-Feb-17 16:00 253 0 gusting 5 25.2
2020-Feb-17 15:50 026 0 gusting 6 24.7
2020-Feb-17 15:40 313 3 gusting 6 24.6
2020-Feb-17 15:30 311 0 gusting 7 24.2
2020-Feb-17 15:20 283 6 gusting 7 24.3
2020-Feb-17 15:10 310 1 gusting 6 24.2
2020-Feb-17 15:00 308 1 gusting 5 24.0
2020-Feb-17 14:50 294 4 gusting 6 23.7
2020-Feb-17 14:40 267 1 gusting 4 23.2
2020-Feb-17 14:30 005 0 gusting 3 22.6
2020-Feb-17 14:20 334 0 gusting 6 22.4
2020-Feb-17 14:10 323 3 gusting 6 22.2
2020-Feb-17 14:00 285 1 gusting 3 22.0
2020-Feb-17 13:50 21.7
2020-Feb-17 13:40 21.3
2020-Feb-17 13:10 20.0
2020-Feb-17 13:00 19.6
2020-Feb-17 12:50 19.2
2020-Feb-17 12:40 19.2
2020-Feb-17 12:30 19.1
2020-Feb-17 12:20 19.2
2020-Feb-17 12:00 19.3
2020-Feb-17 11:50 19.5
2020-Feb-17 11:40 19.7
2020-Feb-17 11:30 19.8
2020-Feb-17 11:20 19.9
2020-Feb-17 11:10 20.0
2020-Feb-17 11:00 20.1
2020-Feb-17 10:50 20.3
2020-Feb-17 10:40 20.4
2020-Feb-17 10:30 20.5
2020-Feb-17 10:20 20.7
2020-Feb-17 10:10 20.8
2020-Feb-17 10:00 20.8
2020-Feb-17 09:50 20.9
2020-Feb-17 09:40 20.9
2020-Feb-17 09:30 21.0
2020-Feb-17 09:20 088 1 gusting 2 21.1
2020-Feb-17 09:10 21.2
2020-Feb-17 09:00 21.1
2020-Feb-17 08:50 21.1
2020-Feb-17 08:40 166 0 gusting 2 21.1
2020-Feb-17 08:30 21.1
2020-Feb-17 08:20 21.1
2020-Feb-17 08:10 150 2 gusting 5 21.1
2020-Feb-17 08:00 21.0
2020-Feb-17 07:50 019 3 gusting 7 21.0
2020-Feb-17 07:40 360 0 gusting 4 21.0
2020-Feb-17 07:30 009 0 gusting 5 21.0
2020-Feb-17 07:20 355 2 gusting 7 21.1
2020-Feb-17 07:10 020 2 gusting 3 21.1
2020-Feb-17 07:00 011 0 gusting 6 21.1
2020-Feb-17 06:50 355 3 gusting 9 21.0
2020-Feb-17 06:40 355 2 gusting 4 20.9
2020-Feb-17 06:30 340 1 gusting 6 20.8
2020-Feb-17 06:20 341 3 gusting 6 20.8
2020-Feb-17 06:00 009 0 gusting 6 20.8
2020-Feb-17 05:50 20.9
2020-Feb-17 05:40 340 0 gusting 6 20.9
2020-Feb-17 05:30 271 0 gusting 4 20.8
2020-Feb-17 05:20 317 2 gusting 4 20.8
2020-Feb-17 05:10 20.8
2020-Feb-17 05:00 277 0 gusting 1 20.7
2020-Feb-17 04:50 290 0 gusting 4 20.7
2020-Feb-17 04:40 290 1 gusting 3 20.7
2020-Feb-17 04:30 254 1 gusting 6 20.6
2020-Feb-17 04:20 268 0 gusting 6 20.6
2020-Feb-17 04:10 263 1 gusting 6 20.6
2020-Feb-17 04:00 279 0 gusting 6 20.6
2020-Feb-17 03:50 250 1 gusting 4 20.5
2020-Feb-17 03:40 241 2 gusting 6 20.5
2020-Feb-17 03:30 228 0 gusting 4 20.4
2020-Feb-17 03:20 20.4
2020-Feb-17 03:10 244 0 gusting 7 20.5
2020-Feb-17 03:00 158 1 gusting 2 20.6
2020-Feb-17 02:50 141 1 gusting 6 20.7
2020-Feb-17 02:40 164 3 gusting 4 20.8
2020-Feb-17 02:30 20.8
2020-Feb-17 02:20 172 0 gusting 2 20.8
2020-Feb-17 02:10 166 4 gusting 4 20.8
2020-Feb-17 01:50 20.7
2020-Feb-17 01:40 20.8
2020-Feb-17 01:30 20.8
2020-Feb-17 01:20 20.8
2020-Feb-17 01:10 20.8
2020-Feb-17 01:00 20.8
2020-Feb-17 00:50 114 0 gusting 1 20.9
2020-Feb-17 00:40 113 0 gusting 2 20.9
2020-Feb-17 00:30 21.0
2020-Feb-17 00:20 147 1 gusting 2 21.0
2020-Feb-17 00:10 134 0 gusting 3 21.1
2020-Feb-17 00:00 21.0
2020-Feb-16 23:50 20.9
2020-Feb-16 23:40 20.8
2020-Feb-16 23:30 20.8
2020-Feb-16 23:20 20.8
2020-Feb-16 23:10 157 2 gusting 6 20.8
2020-Feb-16 23:00 155 2 gusting 7 20.9
2020-Feb-16 22:50 147 4 gusting 6 21.1
2020-Feb-16 22:40 144 0 gusting 7 21.2
2020-Feb-16 22:30 111 6 gusting 6 21.4
2020-Feb-16 22:20 096 2 gusting 6 21.6
2020-Feb-16 22:10 124 4 gusting 7 21.7
2020-Feb-16 22:00 110 5 gusting 7 21.7
2020-Feb-16 21:50 120 6 gusting 9 21.7
2020-Feb-16 21:40 130 4 gusting 7 21.9
2020-Feb-16 21:30 096 3 gusting 9 22.3
2020-Feb-16 21:20 080 7 gusting 9 22.8
2020-Feb-16 21:10 108 3 gusting 7 23.1
2020-Feb-16 21:00 093 5 gusting 7 23.3